Theta_e
357 363 368 366 365 364 363 360 360 360 360 360 360 361 361 361 362 362 361 360 359 358 357 356 355 354 354 353 353 355 355 355 356 354 355 356 358 356 354 352 349 347 349
359 363 367 366 365 364 362 361 360 360 360 360 360 361 361 361 361 361 361 360 358 355 354 354 354 353 352 351 352 354 356 358 359 358 356 357 358 360 356 355 353 349 351
358 362 366 366 365 363 361 360 360 360 360 360 361 362 361 360 360 360 360 359 358 355 354 354 353 353 352 354 355 356 357 357 357 358 357 351 351 359 359 356 355 356 354
358 359 363 365 364 362 360 359 360 360 360 360 361 361 360 360 360 360 359 359 356 355 354 354 355 356 355 354 353 355 355 355 356 356 349 346 346 360 362 360 356 357 356
355 359 363 364 362 361 360 360 360 360 361 361 361 360 359 359 359 359 359 358 357 355 355 355 355 355 354 355 354 354 355 355 354 352 343 339 336 358 362 361 359 357 358
356 359 359 362 361 360 360 361 361 361 361 361 361 359 358 357 358 358 358 358 359 358 356 356 355 355 356 355 355 355 356 356 354 344 339 337 334 357 362 360 356 351 352
355 358 357 361 361 361 361 361 361 361 361 360 360 358 358 358 358 358 359 359 360 359 357 356 356 356 355 355 355 355 355 353 345 340 337 333 336 356 356 351 351 353 354
355 358 357 359 360 360 360 360 360 360 360 360 359 358 358 358 359 359 359 360 360 359 358 356 355 353 353 353 353 354 354 352 345 337 335 332 345 351 354 354 354 356 357
355 355 354 355 359 361 360 359 359 359 358 358 357 357 358 358 358 358 358 359 358 356 355 353 353 354 353 353 353 353 353 353 343 341 339 332 352 353 355 355 355 357 358
352 354 354 355 356 355 356 359 359 358 358 357 356 356 357 357 357 357 355 356 356 355 354 353 354 353 352 352 352 352 352 353 345 342 340 335 352 354 355 357 358 358 356
348 349 352 353 352 352 354 356 358 358 357 357 356 356 352 347 349 351 353 353 355 355 354 353 352 352 352 352 352 353 355 346 341 341 340 353 354 358 357 358 357 353 352
340 344 348 348 348 350 353 350 350 351 351 348 347 349 344 340 342 346 348 354 354 353 352 352 352 353 352 345 344 351 349 347 343 342 346 356 358 355 353 352 351 349 349
338 340 341 343 345 344 347 344 345 345 343 342 342 343 341 342 342 345 342 345 342 347 343 345 343 344 342 344 343 345 344 345 343 346 355 354 352 352 353 351 349 345 344
336 336 336 338 340 339 341 341 341 341 341 342 342 341 340 341 338 333 337 337 335 338 339 341 343 348 347 348 348 345 345 346 346 349 350 349 348 353 348 341 339 341 340
335 336 336 337 336 337 337 337 338 338 341 343 344 343 345 339 338 337 338 337 335 337 341 342 350 350 347 348 346 346 345 344 343 349 348 350 351 346 339 335 335 335 337
338 337 337 339 337 334 336 337 339 339 342 343 345 342 345 339 342 337 335 333 335 340 343 347 349 348 346 345 343 344 343 343 344 346 346 345 345 340 339 337 337 336 334
338 338 337 345 337 334 334 340 342 342 345 345 343 342 344 344 341 340 339 337 346 348 348 347 346 343 342 343 340 342 343 344 346 344 344 343 339 340 338 339 334 333 332
339 338 339 349 338 340 336 347 345 346 345 347 347 345 348 343 341 337 344 346 348 348 347 343 340 337 336 338 338 339 337 340 337 330 326 323 321 324 330 337 334 332 331
341 340 340 349 342 349 349 347 349 348 349 349 348 345 344 342 348 347 351 349 347 345 341 339 338 338 338 338 336 336 333 332 329 326 323 321 320 320 320 334 333 333 330
344 344 345 349 349 348 349 347 349 346 345 346 345 342 344 344 350 348 347 343 342 341 340 340 338 338 337 330 333 330 328 322 325 324 319 320 318 319 319 319 318 322 327
346 345 347 347 348 347 345 346 344 342 339 348 348 350 349 351 350 347 345 341 341 339 335 333 333 332 319 322 321 319 328 315 318 316 319 317 319 319 318 319 318 318 317
346 348 348 347 348 348 345 345 343 340 346 344 344 345 346 345 344 343 341 339 339 330 326 323 323 322 320 317 312 313 305 309 314 316 318 314 312 318 319 319 316 316 316
342 347 348 348 349 349 348 344 342 347 345 341 340 339 340 340 339 337 332 330 327 326 321 320 321 316 315 315 314 308 304 303 307 312 313 312 311 315 315 314 316 316 314
340 346 348 349 349 350 347 343 340 341 340 337 336 336 335 333 331 330 329 325 322 321 319 320 321 316 315 309 311 315 314 311 304 304 309 311 311 312 313 312 314 315 314
341 344 347 347 347 348 345 345 343 337 336 335 331 328 326 326 326 327 325 322 321 320 319 317 317 315 316 312 310 310 310 309 309 305 302 305 308 309 310 311 313 312 312
344 346 347 346 347 345 347 347 342 335 333 330 327 323 323 322 322 322 322 320 319 318 318 317 317 317 315 315 315 312 309 307 306 305 303 303 303 307 310 312 312 311 312
Wind_Speed
7 11 16 17 20 20 19 20 20 19 18 17 16 17 17 17 16 16 14 13 12 11 10 10 10 10 10 10 10 9 9 9 10 10 10 10 8 7 6 6 4 6 5
15 11 17 17 18 20 20 19 19 19 18 16 16 15 16 15 15 14 13 11 10 11 10 10 9 9 8 8 8 8 6 7 9 10 11 11 12 11 9 8 7 2 2
17 12 14 18 19 20 20 19 18 18 17 17 15 14 13 14 13 12 11 10 10 10 10 9 9 8 7 6 6 5 6 8 10 12 14 6 9 13 13 10 8 7 4
17 13 13 18 18 20 20 20 19 18 17 17 15 14 13 12 12 11 10 9 9 9 9 8 8 6 5 4 3 5 7 8 11 15 8 7 8 12 14 11 9 8 7
17 13 15 18 19 19 20 20 19 18 16 16 15 14 13 11 10 10 10 9 9 8 8 7 6 5 3 1 3 4 7 9 11 12 9 8 4 6 12 12 9 8 7
18 16 19 20 19 20 21 20 20 18 17 15 14 14 13 11 9 9 9 9 8 8 7 6 4 3 0 2 4 6 8 10 12 7 8 7 6 9 13 11 8 6 4
17 17 17 21 19 19 21 21 20 19 16 15 14 13 12 10 9 9 8 8 8 6 5 4 3 2 3 6 7 10 12 12 8 7 6 7 2 8 7 7 6 1 3
17 17 16 21 20 19 20 20 19 18 16 15 13 12 11 10 10 9 7 7 6 5 4 3 3 7 9 10 10 12 13 13 10 7 7 6 3 10 7 3 4 3 5
17 16 16 15 17 19 19 19 18 18 15 14 12 11 10 9 9 8 7 6 6 5 5 6 9 11 11 11 11 13 14 14 9 7 8 4 7 6 3 4 5 7 7
16 14 14 13 13 12 12 19 18 16 14 12 11 10 9 9 8 7 8 8 8 9 10 10 11 10 11 12 13 14 17 15 9 8 5 4 10 5 6 9 9 10 13
14 14 13 12 11 11 11 13 16 19 15 13 11 11 8 4 6 7 9 11 12 12 10 11 11 10 11 13 16 16 17 6 5 5 3 12 9 10 14 14 14 15 17
16 16 14 13 12 13 10 8 8 10 7 6 6 6 5 5 6 8 9 13 13 10 9 12 13 8 10 5 6 9 2 4 4 2 4 12 13 14 14 14 14 15 17
18 14 16 16 13 12 11 6 4 4 4 4 7 6 5 4 5 5 2 3 4 5 4 6 5 4 5 4 5 4 2 2 1 7 10 14 13 13 15 15 15 16 17
19 17 15 16 15 11 8 7 7 6 6 5 6 8 5 4 4 4 4 6 3 3 5 5 2 2 2 4 7 6 6 7 5 4 8 8 9 14 16 15 15 16 15
21 19 18 16 13 13 12 7 7 7 7 7 6 6 5 4 3 2 2 3 3 1 3 3 5 5 5 5 5 6 6 6 6 4 2 9 13 16 17 16 17 16 17
20 22 21 17 15 15 12 9 9 5 7 5 6 6 5 3 3 2 1 2 3 2 4 5 4 4 4 5 6 6 7 6 6 7 3 5 15 13 14 16 17 19 19
20 21 21 16 18 16 15 10 9 8 7 8 6 6 6 5 4 3 2 2 2 5 6 5 5 4 5 4 5 5 5 6 5 7 4 4 5 14 13 17 18 17 18
21 22 19 15 16 14 14 8 10 6 8 5 6 5 6 6 5 2 2 3 4 4 4 4 4 4 4 4 4 4 3 4 7 8 6 4 2 3 7 16 15 16 17
22 21 19 17 16 9 8 6 6 7 4 6 6 5 6 6 6 5 3 4 5 5 4 4 3 2 2 3 4 4 5 4 6 7 5 4 6 4 4 12 13 14 17
21 19 16 14 14 9 6 5 4 4 3 5 5 4 6 3 6 6 5 6 6 5 4 4 3 3 2 3 3 5 4 5 6 4 3 2 4 6 6 6 5 6 14
20 19 18 16 13 9 3 4 3 5 4 7 8 9 9 8 7 7 5 6 5 5 5 5 3 4 5 5 4 4 3 6 6 4 4 4 7 3 7 4 4 3 4
11 18 16 17 15 9 5 3 3 4 6 7 8 9 9 10 8 8 7 5 6 5 6 6 5 3 2 5 1 2 4 6 5 6 5 9 8 5 5 4 5 5 5
16 16 16 16 15 9 8 5 4 8 7 7 7 8 8 9 8 9 8 8 7 5 5 5 5 6 3 4 7 4 4 0 2 4 6 6 7 5 3 4 6 6 6
12 3 16 15 14 9 9 7 10 7 8 4 7 7 8 10 10 9 8 8 6 5 6 5 5 4 4 4 3 4 5 3 3 4 4 5 5 5 4 5 5 5 5
21 15 12 12 12 7 10 9 9 11 9 8 8 11 10 9 7 8 7 7 6 5 6 7 6 7 4 3 2 3 4 4 5 4 3 5 4 4 3 4 4 4 5
14 15 14 14 14 8 8 12 14 16 13 11 9 9 7 5 4 6 7 6 7 6 6 5 6 7 5 5 4 4 4 3 3 4 2 3 3 5 4 4 5 4 4
Wind_Direction
127 128 125 123 120 119 117 114 114 112 107 105 103 101 96 94 95 98 99 100 103 108 106 98 89 83 75 67 58 49 32 12 354 351 346 337 322 305 293 296 301 99 142
125 129 128 127 125 122 119 117 116 115 113 110 109 106 106 105 106 106 107 109 111 109 105 98 90 82 76 69 56 39 19 357 335 333 328 319 297 270 256 261 269 205 166
124 128 126 130 129 125 123 122 119 118 117 115 114 111 109 112 112 112 113 112 112 110 103 100 95 89 83 68 48 17 2 347 329 321 316 291 268 263 232 239 244 253 259
130 128 130 132 132 129 127 125 123 122 121 120 122 118 120 121 122 122 121 119 116 111 109 105 101 97 87 69 32 2 346 328 321 314 308 289 278 267 200 221 230 245 248
128 128 133 132 133 131 130 127 124 124 124 124 125 126 130 132 133 129 126 125 123 122 118 114 111 101 94 23 348 333 309 305 303 305 300 296 338 185 186 205 220 240 249
126 128 137 134 136 136 134 130 127 128 127 129 130 134 138 144 140 134 135 135 137 130 127 122 120 126 293 301 300 288 280 277 284 278 288 294 307 196 198 194 208 226 249
127 128 138 134 138 139 136 133 131 131 132 134 138 143 148 148 142 142 146 144 141 142 143 142 149 213 256 265 262 264 263 272 288 276 282 300 297 177 195 186 197 219 309
127 128 135 142 139 142 138 135 133 133 135 140 146 151 152 151 149 150 154 150 151 158 168 178 218 242 243 248 251 259 265 269 280 288 280 284 266 171 188 153 53 7 350
125 129 138 140 139 140 137 135 136 136 141 145 151 153 151 156 158 155 162 163 175 195 215 225 235 242 251 259 264 265 269 271 268 260 271 276 184 155 149 75 43 27 23
130 132 131 136 137 138 142 140 140 139 141 144 150 154 160 166 167 165 182 195 202 215 227 234 245 256 263 272 272 271 272 273 266 271 257 229 176 148 60 42 28 37 36
134 135 137 140 144 139 138 146 143 143 147 151 161 164 173 169 175 193 204 204 214 219 232 248 256 268 282 280 278 272 267 257 273 277 255 173 93 70 55 49 41 31 33
146 144 151 147 150 142 147 147 146 149 154 149 171 174 184 187 188 198 216 220 219 225 242 256 264 270 274 272 284 296 272 287 274 260 46 86 83 75 67 60 55 42 42
150 154 161 155 154 153 142 152 152 153 160 169 181 182 196 207 210 208 179 230 231 228 248 256 270 250 264 277 280 11 318 255 317 47 98 85 71 65 63 53 54 48 39
154 156 155 159 155 149 153 152 164 166 173 188 188 185 180 216 206 169 185 216 223 222 243 282 249 352 231 59 30 6 4 7 12 84 96 92 72 78 69 54 36 40 43
160 158 163 160 153 150 157 159 169 183 180 187 182 188 189 192 185 186 177 152 216 152 193 48 33 21 10 27 14 13 0 352 13 111 101 70 88 72 56 41 40 43 42
160 161 162 158 153 154 165 172 174 185 183 163 178 183 182 153 185 173 103 7 20 74 48 35 29 12 18 22 356 357 336 334 9 106 89 84 86 81 58 41 49 47 37
160 159 160 148 158 157 175 168 171 190 167 166 167 178 165 146 127 89 53 61 93 53 56 44 34 15 12 5 345 336 339 12 61 75 85 73 104 78 63 52 54 44 32
152 159 158 148 161 163 175 171 173 155 157 144 154 158 157 137 129 109 58 108 72 52 66 59 34 9 351 336 326 316 3 30 80 85 94 97 107 72 51 58 48 33 33
152 159 159 143 157 143 137 137 124 140 120 147 136 145 146 135 139 85 61 74 57 65 56 48 14 19 354 336 330 335 17 57 80 87 76 63 64 85 65 67 47 36 34
148 154 151 140 133 136 127 126 110 111 103 129 133 140 114 119 103 94 87 79 70 76 50 36 17 338 347 330 343 14 62 51 74 103 79 47 70 69 63 66 42 45 34
145 150 153 143 136 138 130 111 112 127 109 83 82 81 75 68 72 73 81 66 62 73 66 38 350 32 12 351 43 4 47 49 53 54 29 27 30 48 61 69 64 63 26
137 147 151 147 141 137 141 130 136 116 86 106 94 76 71 69 68 72 81 73 80 75 56 45 29 19 32 22 87 82 19 346 1 24 33 30 12 25 49 42 59 56 46
207 163 151 150 150 140 139 128 88 102 101 96 81 84 79 80 74 72 66 78 70 75 71 55 29 41 63 1 38 132 59 21 342 330 25 23 18 32 6 3 44 56 46
197 203 156 144 151 143 144 134 139 136 124 94 97 95 81 74 69 67 71 79 75 73 65 49 35 39 70 40 4 17 72 132 101 354 351 358 6 25 12 14 42 46 29
178 191 148 138 157 145 147 137 128 107 117 113 103 97 92 80 71 70 68 81 79 70 73 64 50 51 48 65 54 41 45 40 55 89 341 330 341 342 360 15 39 26 355
151 145 144 153 161 157 138 143 127 131 130 120 120 111 101 93 84 78 80 75 78 80 81 76 62 63 57 53 47 40 83 88 32 51 49 299 329 311 340 14 22 354 346